Theta_e
314 314 312 311 312 316 323 327 326 324 322 325 329 329 327 324 321 321 321 319 319 321 322 322 321 320 320 321 321 322 322 322 322 322 323 323 324 324 324 324 324 326 325 326 327 325 320 317 319 316 315 318 315 315 316 315 317 317 324 326 324 329 328 326 327 320 322 324 318 317 320 319 319 319 319 321 321 322 321 322 324 324 324 325 327 325 322 329
313 313 311 310 310 311 317 324 326 324 322 323 327 328 328 328 325 323 322 321 320 321 323 323 321 321 320 321 321 321 321 321 322 322 323 323 324 324 325 325 325 326 325 326 326 327 325 319 318 317 315 315 314 315 316 316 316 320 326 325 328 334 326 321 319 316 319 321 317 317 319 319 319 319 319 322 322 322 325 328 329 326 326 327 329 326 323 329
313 313 312 309 309 309 312 320 326 325 323 321 324 327 327 328 327 326 324 322 321 322 324 323 321 321 320 321 320 319 320 321 323 323 322 322 322 323 324 325 325 326 325 326 326 327 328 322 319 319 316 314 315 314 315 317 317 318 320 324 334 332 320 316 315 314 318 318 317 317 319 319 318 319 319 321 320 321 327 331 330 327 326 327 329 326 325 328
312 313 313 310 309 309 310 315 323 326 324 322 322 325 327 327 326 326 326 324 322 322 324 324 321 321 321 321 320 320 321 323 324 322 322 322 322 322 322 324 324 325 325 326 327 327 328 323 319 319 318 316 314 313 314 316 317 316 317 324 330 320 316 318 315 315 316 316 317 318 319 319 318 319 318 319 321 320 322 325 325 324 323 326 328 326 326 328
312 312 314 313 310 310 311 312 317 324 326 323 323 325 327 328 326 325 326 326 323 322 324 324 322 320 321 321 322 323 323 326 325 322 323 322 322 322 322 324 324 325 325 326 327 326 325 323 321 318 317 316 316 318 316 314 315 315 316 320 320 315 316 318 315 315 316 316 317 317 318 320 318 317 317 319 321 320 320 320 320 319 319 321 324 325 326 328
311 312 313 315 313 310 311 312 312 319 325 324 325 326 327 328 326 325 325 326 324 322 323 324 322 321 321 322 324 325 325 326 324 323 325 322 323 323 323 324 324 325 325 326 327 324 323 322 322 319 316 317 318 322 318 313 313 314 316 316 316 316 316 317 316 315 316 316 317 317 318 319 317 317 317 319 320 319 320 320 319 318 318 318 320 323 325 327
311 312 313 314 314 310 310 313 311 318 325 324 325 326 326 328 326 325 326 326 325 323 323 324 322 321 321 324 325 325 325 324 320 321 325 323 324 324 324 324 324 325 325 326 326 323 321 320 321 318 317 320 318 318 317 313 312 313 316 316 315 316 315 316 316 315 316 316 317 318 318 318 318 318 317 317 319 319 319 319 319 319 319 320 321 321 321 323
310 311 313 313 314 312 309 312 312 319 326 323 325 327 326 328 326 324 326 327 326 324 323 323 322 321 321 324 325 325 325 324 320 320 322 322 324 325 324 324 324 326 325 326 327 325 321 319 321 319 319 322 319 317 316 313 313 313 316 316 314 316 315 316 315 315 316 316 317 317 316 317 317 317 316 317 318 317 318 318 318 320 321 322 321 321 321 321
310 310 312 313 314 313 310 311 312 317 325 325 325 327 326 327 327 324 324 327 327 326 325 324 322 321 321 323 324 324 325 324 322 321 321 321 323 325 325 325 325 326 326 326 326 326 321 318 320 320 319 318 317 317 315 314 316 313 314 314 313 315 315 315 314 314 316 316 317 317 315 315 316 316 316 317 317 317 317 317 318 319 321 322 321 321 321 321
310 310 311 312 314 314 311 311 311 312 321 327 325 326 327 327 327 325 322 324 325 326 326 325 323 321 321 323 323 324 324 324 323 323 322 321 321 324 326 325 325 326 325 324 323 325 324 319 318 319 318 316 316 317 314 316 317 312 311 312 312 314 314 314 314 314 315 315 315 316 315 314 314 315 316 317 316 316 317 317 318 319 320 321 321 321 320 320
309 309 311 311 313 315 312 310 310 310 318 328 326 325 327 327 327 326 323 322 323 325 326 325 324 322 321 322 322 322 323 323 323 323 323 322 320 323 326 325 326 326 325 323 322 323 323 320 317 317 316 315 316 316 314 315 313 311 312 312 312 313 313 313 314 314 314 315 315 315 314 313 314 315 316 316 316 316 316 317 318 318 320 319 320 320 320 319
308 308 310 311 312 314 314 311 310 310 315 324 327 324 325 327 327 326 325 322 321 324 325 325 324 323 321 321 322 322 322 323 323 323 322 322 320 321 326 325 326 326 324 322 320 319 319 318 317 317 316 315 317 316 315 315 311 311 312 313 314 313 314 314 313 314 314 314 315 315 314 315 316 315 316 315 315 317 316 317 318 318 319 319 320 320 320 318
307 308 309 311 312 312 314 314 311 310 312 320 326 325 325 327 326 326 325 322 321 324 326 324 324 324 322 321 322 322 323 323 324 324 323 323 321 322 326 325 325 324 323 323 321 317 316 317 317 317 315 315 316 315 316 314 311 312 313 313 316 315 316 315 312 313 314 314 314 314 317 319 317 314 315 315 315 318 318 317 317 318 319 319 319 320 320 318
307 308 308 310 312 312 313 315 313 311 310 315 323 326 326 327 326 325 324 322 321 323 325 325 324 323 322 322 323 323 323 323 323 323 324 323 320 322 326 324 321 321 324 325 321 318 316 316 317 316 314 314 314 314 314 312 311 314 314 314 316 317 320 317 311 313 314 314 314 314 316 320 320 315 314 315 315 318 319 318 318 319 319 319 319 319 319 318
307 308 309 309 311 311 313 314 315 314 310 312 322 326 325 326 326 325 323 322 321 322 324 324 323 323 323 323 322 323 324 322 321 322 324 322 318 323 326 322 321 324 324 321 318 317 315 316 316 314 314 313 313 313 312 312 313 314 314 317 317 315 322 321 312 313 315 314 313 313 316 320 319 315 314 314 315 317 318 318 319 319 319 319 320 320 319 318
307 308 309 309 310 311 312 313 315 316 312 311 321 325 323 325 326 324 323 322 321 322 323 323 323 323 323 322 321 322 325 323 319 322 324 319 317 324 326 322 323 323 318 315 314 315 315 315 315 314 314 313 312 313 313 313 315 317 315 319 321 315 318 319 312 312 314 313 313 313 317 320 317 313 312 314 314 316 316 318 319 319 320 320 320 320 319 318
307 308 309 309 309 310 312 312 314 317 313 311 321 326 325 325 325 324 323 322 322 322 322 322 322 323 322 320 318 320 324 323 319 321 322 317 319 324 325 324 321 316 312 313 314 314 315 315 314 314 313 312 312 312 314 313 314 317 314 316 321 317 315 317 316 313 311 313 315 313 315 319 317 311 311 313 314 315 314 316 318 318 319 319 319 319 318 316
307 308 309 309 309 309 311 312 313 317 313 312 322 326 325 325 324 324 323 322 322 320 320 320 320 323 322 318 317 320 323 322 318 320 320 317 320 322 323 323 317 311 312 313 313 313 314 313 313 314 312 311 312 312 315 315 314 316 316 315 316 315 314 316 317 315 312 314 315 314 314 316 316 312 311 312 313 314 313 314 316 317 317 318 319 318 317 315
307 308 309 309 310 310 311 311 313 317 314 316 324 325 324 325 323 323 322 321 319 318 319 319 319 323 323 319 317 320 323 322 318 318 318 317 320 321 320 319 314 311 312 312 312 311 312 311 311 313 313 312 312 312 314 315 315 315 317 315 315 315 314 316 318 314 312 314 315 315 315 315 316 314 312 312 312 312 313 313 313 314 315 316 317 317 316 315
308 308 309 310 310 310 310 311 313 316 316 317 323 325 324 322 321 319 320 321 319 319 319 319 320 320 320 319 317 319 322 320 317 317 316 316 319 319 317 316 312 311 311 312 312 310 311 312 311 311 313 312 311 312 312 312 313 312 313 314 314 315 314 316 318 313 311 314 315 314 315 314 315 315 311 311 312 311 311 312 312 313 314 315 315 315 315 315
308 308 309 310 310 310 310 311 313 316 317 318 319 323 324 320 319 318 319 320 319 319 319 320 321 318 318 319 317 319 320 317 316 316 315 316 318 316 313 313 311 310 310 311 311 310 311 312 311 311 312 311 311 311 311 311 311 311 312 312 313 315 315 315 316 313 311 313 316 314 314 314 313 314 311 309 311 311 311 312 311 312 313 314 315 314 315 314
309 308 309 310 310 310 310 312 314 316 318 320 319 321 323 320 319 319 320 320 318 318 318 319 320 317 317 319 318 320 319 315 315 315 314 314 316 314 311 310 310 310 310 310 310 310 310 311 312 310 309 310 311 311 311 311 311 311 312 311 313 316 315 314 314 314 312 313 317 315 314 315 315 314 311 308 310 312 313 313 313 314 313 314 315 315 315 314
309 308 309 310 309 309 310 312 314 316 318 321 321 321 321 319 319 319 320 318 316 316 316 318 320 316 314 315 318 320 318 314 314 314 313 313 313 312 310 309 309 310 309 310 311 310 311 312 311 309 308 310 311 311 311 311 311 311 312 312 314 316 315 315 313 313 313 313 315 316 315 316 315 315 313 310 311 313 314 314 314 314 314 314 315 314 315 315
309 308 309 309 309 309 310 312 315 317 319 321 321 321 320 318 319 319 318 317 315 314 315 319 320 316 313 314 317 319 317 315 315 313 313 313 311 310 310 309 309 309 309 310 310 311 312 312 310 308 309 311 312 311 310 311 311 312 313 312 314 318 316 315 314 313 313 312 313 315 317 319 318 316 316 313 311 312 312 312 312 313 314 314 314 314 315 315
309 308 309 309 309 309 309 313 318 319 319 320 320 320 319 318 319 318 317 316 315 313 314 318 319 316 314 314 316 317 316 314 314 313 312 312 311 310 310 309 310 310 309 310 310 311 312 310 309 310 311 311 312 311 311 311 311 311 314 313 314 318 318 315 316 316 313 313 314 312 316 326 326 319 317 314 311 311 311 311 311 313 314 314 314 314 314 315
311 308 309 309 308 308 310 315 320 319 319 320 319 319 319 318 318 318 317 317 315 312 314 317 317 315 313 314 316 316 317 316 313 313 312 311 311 310 309 309 310 310 309 309 310 312 311 308 309 312 312 312 312 311 311 312 311 311 315 316 315 318 320 318 317 318 317 315 314 312 315 325 324 319 320 316 313 314 312 309 310 311 314 314 314 315 315 315
312 308 309 308 307 309 312 318 321 320 319 319 318 318 319 317 316 317 316 318 317 313 314 316 315 314 314 314 315 317 320 318 313 312 312 311 311 310 310 309 309 309 307 309 312 312 310 309 310 312 312 313 312 310 312 312 310 314 320 320 318 319 323 322 318 320 322 316 315 317 317 317 316 317 320 314 313 317 315 312 310 309 312 314 314 316 315 315
311 308 309 308 307 309 313 319 320 320 320 319 318 318 318 317 316 315 316 318 317 312 313 315 314 314 313 313 315 316 317 316 313 312 311 310 310 310 310 309 309 309 308 310 314 311 309 311 312 311 311 312 311 310 313 313 311 318 324 320 318 320 322 323 319 321 319 314 318 321 315 314 319 323 322 315 314 317 319 319 314 309 311 313 313 315 315 315
310 308 309 308 308 310 314 319 319 319 320 318 318 317 317 316 315 314 315 316 314 312 314 316 314 313 312 314 316 314 313 315 314 312 311 310 311 310 310 309 308 309 309 310 315 313 309 310 310 311 311 311 312 312 314 315 313 317 319 319 321 322 321 321 322 323 317 313 319 323 315 313 321 327 323 316 315 317 320 320 314 309 311 313 313 314 314 315
309 309 309 308 310 313 317 320 318 318 319 318 317 317 316 315 314 315 316 315 313 313 315 314 313 313 313 314 314 313 313 315 313 311 311 311 311 310 310 310 307 311 313 311 315 315 309 308 309 310 311 310 312 311 311 313 312 313 317 320 320 323 325 327 331 326 315 315 322 323 318 313 316 324 323 316 316 318 318 318 314 310 311 313 313 314 314 314
310 310 309 308 312 315 318 319 318 318 318 317 316 316 315 314 314 315 316 314 314 314 312 312 313 312 313 312 312 313 313 313 311 311 312 311 313 311 309 310 309 314 316 312 314 314 309 310 310 309 309 310 312 312 311 312 311 314 323 322 317 322 326 329 330 322 315 318 321 319 316 313 314 321 323 318 317 317 315 317 318 312 312 314 314 315 315 314
311 310 309 310 313 316 318 318 318 317 316 317 316 314 314 314 314 316 315 313 314 314 312 313 313 312 313 312 313 313 313 312 311 312 312 311 312 310 309 311 310 312 313 311 313 312 311 313 311 308 309 311 315 315 314 315 313 316 322 318 316 321 320 319 322 319 318 319 315 314 314 314 315 317 318 317 315 315 312 311 313 311 311 313 314 315 315 315
310 310 310 312 315 317 318 318 317 317 316 316 315 314 314 315 316 316 314 313 314 314 312 313 313 313 313 312 313 313 313 313 311 312 312 311 311 310 311 313 312 315 314 312 313 312 314 316 312 311 311 310 313 314 315 317 314 313 316 316 319 320 314 314 318 316 317 318 314 312 313 315 317 316 317 316 313 313 311 308 311 311 311 313 313 315 315 315
311 311 313 315 317 318 318 317 317 316 316 316 315 314 315 316 317 315 313 312 313 313 313 313 313 314 313 313 312 312 314 313 311 312 312 311 311 310 311 312 312 317 318 315 313 312 314 316 314 313 311 310 313 314 317 320 316 315 317 318 321 322 318 316 318 319 319 320 315 310 313 319 319 316 316 313 309 311 311 311 312 311 312 314 313 314 315 315
313 314 315 316 318 318 317 317 316 316 316 315 314 314 316 317 316 314 313 312 312 313 313 313 313 314 313 313 312 312 313 313 312 312 312 311 311 310 311 310 310 315 316 313 313 312 313 315 314 311 308 310 313 313 314 317 316 317 318 317 317 322 325 320 318 324 324 320 316 312 316 322 318 314 314 309 308 309 309 310 311 311 312 313 314 315 315 315
316 316 316 317 318 317 316 317 316 316 316 314 313 315 316 317 316 314 313 312 313 313 313 313 313 314 313 312 312 312 313 313 312 313 312 312 312 311 311 311 310 312 313 312 314 314 313 314 313 311 308 309 311 311 311 313 316 316 314 318 318 317 324 322 314 315 315 316 317 313 315 322 318 315 317 315 312 311 310 310 310 311 313 313 314 315 314 315
318 318 317 316 317 316 316 316 316 316 314 313 315 316 315 315 314 314 312 312 313 312 313 314 313 314 313 312 312 313 313 313 312 313 313 312 312 312 311 311 310 310 311 312 313 314 315 315 312 313 312 309 307 309 309 308 314 319 315 317 317 313 318 322 315 313 312 315 320 315 313 320 319 318 323 320 315 316 317 313 308 309 312 313 314 314 314 315
318 317 316 315 316 316 315 316 316 314 313 313 316 316 314 314 312 312 312 312 313 313 313 314 314 314 313 312 312 312 313 313 312 313 313 312 314 313 311 311 310 310 310 311 312 313 316 317 312 311 312 311 310 312 312 308 309 316 315 314 316 316 317 318 317 316 313 314 321 318 313 317 318 320 324 318 316 320 317 314 312 310 309 311 314 314 314 314
317 316 315 315 316 316 315 315 315 313 313 314 315 314 315 313 311 311 311 312 313 313 314 313 313 314 313 313 313 311 313 313 311 312 312 312 314 313 310 311 311 309 307 310 314 314 315 318 316 311 310 311 313 313 315 314 310 311 312 311 315 318 319 318 317 318 317 317 321 318 313 318 320 322 324 317 316 318 313 315 317 310 307 310 312 313 313 313
316 316 315 315 315 316 315 315 314 313 312 314 314 314 314 312 310 310 312 313 314 314 315 314 313 314 313 313 313 311 313 313 311 311 313 312 312 311 310 310 311 309 308 311 316 314 313 317 317 313 309 310 314 315 316 316 312 312 314 314 313 313 315 319 317 318 320 321 323 317 315 326 326 318 319 316 316 317 313 316 316 308 308 311 311 312 313 312
315 316 314 314 315 315 315 314 313 312 312 313 313 313 312 311 310 311 312 313 313 313 314 314 313 314 313 313 312 312 313 313 311 311 313 311 310 311 311 309 310 310 310 312 315 315 314 315 317 315 312 313 317 316 315 316 313 313 314 314 314 313 315 316 314 316 317 318 323 319 316 327 326 316 317 318 319 317 311 310 311 309 310 311 311 311 311 311
314 315 314 314 315 315 315 314 312 311 311 312 313 312 311 310 310 311 312 313 313 313 313 314 314 314 313 313 312 312 313 313 311 311 313 311 311 313 311 309 309 309 310 313 313 314 315 316 318 317 314 316 316 310 307 310 313 314 313 314 315 314 317 318 317 319 317 313 317 317 313 321 326 321 319 316 313 310 308 307 307 309 311 311 311 312 311 311
313 314 314 314 314 314 314 313 311 311 311 311 311 311 311 310 310 312 312 313 313 313 313 314 314 313 314 313 312 312 312 312 311 312 313 311 311 312 310 308 310 309 311 314 313 312 315 317 318 316 314 316 319 313 307 307 311 313 313 314 315 315 319 324 323 322 319 314 315 314 312 320 330 323 311 306 305 306 307 308 307 308 311 311 312 312 311 312
312 312 313 314 314 314 314 313 312 311 310 311 312 313 312 310 310 312 313 313 313 313 314 314 313 313 313 312 312 312 312 312 312 312 313 312 311 310 309 309 311 311 311 313 312 312 314 316 316 317 316 316 319 318 313 310 310 314 316 315 317 318 318 319 317 314 315 320 321 316 313 319 329 323 309 305 307 307 306 308 307 308 310 311 312 312 312 312
312 312 313 313 313 313 313 313 313 312 311 312 313 314 313 310 310 311 312 313 312 312 313 312 312 313 312 313 313 312 312 313 313 312 313 313 311 309 308 309 311 311 311 312 310 312 318 318 315 316 316 315 315 315 315 314 312 315 318 317 317 317 314 314 316 313 313 320 320 316 314 316 319 317 312 310 312 313 310 308 308 308 309 311 311 311 312 313
313 312 313 313 312 313 312 311 312 312 312 312 313 314 313 311 311 310 311 313 312 311 313 312 312 312 312 312 313 312 312 313 313 313 312 314 315 311 308 309 311 310 311 312 310 314 322 318 313 314 314 312 314 315 316 317 314 313 317 316 314 313 312 316 320 316 314 317 316 313 313 313 314 317 317 316 318 320 315 308 307 309 309 310 311 310 311 312
313 312 311 312 313 313 311 312 313 312 312 312 313 313 312 312 312 310 311 314 311 311 312 312 311 312 312 312 313 312 312 313 314 313 312 314 316 312 308 308 310 309 311 312 310 315 322 317 312 314 312 313 321 321 316 315 314 312 314 314 314 314 313 316 317 315 315 317 314 313 313 313 315 319 321 321 322 322 314 307 307 310 309 309 310 310 310 311
312 311 310 311 313 312 312 312 312 312 311 312 313 313 312 312 312 310 312 313 311 310 312 312 312 313 312 312 313 312 312 313 313 313 313 314 314 312 310 309 309 309 312 311 310 314 320 316 313 313 312 315 323 322 316 314 314 313 313 313 314 315 315 314 313 313 316 315 312 314 317 315 315 317 318 319 318 315 310 307 309 310 309 309 310 310 311 311
311 311 310 310 311 312 312 312 312 312 311 311 313 314 312 312 312 312 315 314 311 311 312 312 312 312 312 312 312 312 312 313 312 312 312 313 313 312 311 311 309 308 310 312 311 311 315 317 315 315 315 316 318 318 316 315 314 313 314 314 313 314 314 313 312 312 313 314 312 314 317 316 314 315 316 314 310 308 309 309 310 311 310 310 309 310 311 311
311 311 310 310 310 311 312 312 311 312 311 311 313 313 312 312 312 314 316 314 311 312 313 312 313 312 312 312 312 312 312 313 313 312 311 312 313 312 312 313 312 309 309 311 311 309 312 316 315 315 316 316 315 314 313 314 314 314 315 313 312 313 312 312 312 312 312 313 312 313 314 313 312 311 311 310 309 309 309 311 312 312 311 310 309 310 311 311
310 310 310 310 310 312 313 312 311 312 311 311 312 313 312 312 312 314 315 312 311 312 312 312 313 312 311 312 312 312 312 312 313 311 311 312 312 312 312 312 311 311 311 312 313 312 313 314 312 314 317 315 314 314 312 312 313 314 315 314 311 311 312 311 312 313 312 312 313 313 312 312 311 309 308 308 309 308 309 311 312 313 311 310 310 310 310 311
310 310 310 310 311 312 312 311 311 312 311 310 310 312 314 313 312 314 314 312 311 312 311 312 312 311 312 312 312 312 311 311 311 310 310 312 311 310 311 309 310 312 313 314 314 315 316 316 313 314 317 314 312 313 314 313 313 313 314 313 310 310 311 311 312 313 312 312 312 312 311 313 315 313 311 313 312 309 309 311 312 313 312 311 310 310 311 311
Wind_Speed
32 34 39 41 39 36 32 38 45 43 43 43 41 40 39 39 40 37 35 33 31 29 27 27 25 24 23 22 21 20 19 19 19 20 21 20 20 23 22 17 15 16 12 9 10 8 6 9 18 12 6 12 3 5 3 2 6 3 2 2 2 3 3 4 6 6 4 4 9 13 14 12 9 11 15 13 14 17 14 9 12 12 8 11 10 9 25 31
31 32 38 41 40 41 35 34 43 46 46 46 42 38 37 38 39 37 36 34 32 30 27 27 26 24 23 22 21 20 18 18 18 20 21 18 17 19 20 20 17 18 14 10 10 10 9 7 15 15 11 12 3 4 4 2 7 3 2 2 4 5 4 4 4 7 5 6 14 15 14 15 13 16 18 10 9 15 11 8 10 12 12 12 13 16 27 32
30 31 36 42 43 43 40 33 38 47 47 46 46 41 39 40 39 38 37 36 34 32 28 26 26 25 23 23 22 20 18 17 18 23 23 19 18 17 17 19 19 20 16 11 10 9 11 7 10 16 11 7 4 5 6 1 6 3 3 2 5 5 4 6 4 7 8 9 17 17 15 15 16 19 18 11 10 11 10 11 12 14 15 14 18 23 28 32
29 30 33 39 44 45 45 38 33 45 49 46 48 44 41 42 40 39 38 37 36 33 30 27 26 26 24 24 21 20 18 13 18 27 25 22 22 19 17 18 17 19 16 12 11 8 12 9 8 12 9 2 5 9 5 1 2 3 4 4 5 3 2 7 6 7 9 12 21 20 14 13 17 18 16 17 10 4 12 21 19 19 20 20 24 26 27 32
27 30 32 35 43 45 46 44 34 38 49 47 47 47 45 44 42 41 40 38 38 35 32 29 27 26 24 24 21 21 17 6 13 25 24 24 25 22 19 18 17 17 15 13 12 10 13 12 9 11 7 2 6 8 3 4 7 3 5 7 8 3 1 10 9 7 7 12 17 18 14 14 18 14 17 23 11 9 20 25 22 20 20 20 24 26 27 31
28 29 33 33 38 45 46 46 39 35 46 47 45 47 46 46 44 42 42 40 39 36 33 30 28 28 25 24 22 22 19 5 3 13 20 24 24 23 20 19 18 16 14 13 13 14 16 14 12 14 9 4 3 4 5 11 13 4 5 7 10 8 4 9 9 6 5 13 16 17 16 17 17 9 17 26 17 15 22 22 19 18 17 19 22 24 27 30
29 29 33 33 34 43 47 47 43 37 44 48 46 48 46 46 45 42 43 41 40 38 35 33 30 29 27 25 22 21 22 13 4 8 14 21 22 21 21 20 19 16 15 16 16 16 18 18 16 18 12 4 3 5 6 18 19 5 4 8 7 8 6 8 7 6 6 14 18 18 15 18 18 8 14 24 20 14 16 18 18 17 18 20 23 24 25 27
30 30 32 33 33 40 46 48 47 41 45 51 48 48 46 45 45 42 43 41 41 39 36 35 32 32 30 27 25 20 24 23 11 12 11 15 21 23 23 23 21 18 17 18 18 17 18 20 20 18 10 4 7 6 6 15 18 5 4 9 7 6 7 8 7 3 5 12 15 14 11 16 17 9 11 20 19 13 14 18 19 20 22 23 24 24 25 26
30 30 32 33 33 38 45 49 51 45 44 52 50 49 46 45 46 42 42 42 41 40 38 36 34 34 31 29 27 18 24 29 20 13 7 7 15 24 26 25 23 20 20 20 19 18 17 20 22 18 11 8 10 8 5 4 7 5 9 15 11 8 6 6 7 1 4 9 13 11 5 9 11 5 9 18 18 14 14 18 21 24 25 25 25 24 25 26
31 30 32 34 34 37 44 49 54 48 40 49 52 50 47 45 46 44 42 42 41 41 39 38 36 35 33 31 25 13 22 30 25 21 12 5 8 21 27 25 24 22 22 23 21 21 20 19 22 20 13 12 12 10 9 5 6 13 21 19 11 8 5 5 6 3 3 7 12 10 2 4 7 3 6 14 17 16 16 18 22 27 27 27 26 25 25 25
33 31 33 34 35 37 43 48 54 52 41 46 53 51 48 45 44 45 44 42 42 41 39 39 38 37 35 34 25 15 20 26 28 28 19 10 6 17 27 25 24 23 23 25 24 22 20 20 24 20 9 11 14 6 4 4 10 17 20 14 6 3 3 5 5 5 3 4 8 8 3 1 2 2 7 14 18 17 17 17 22 29 29 28 28 26 25 24
35 33 33 35 37 37 41 47 53 54 46 45 54 53 48 46 43 44 45 42 42 40 39 39 38 38 36 33 32 26 21 19 23 28 26 17 9 15 26 25 24 24 23 25 24 22 21 22 26 20 9 15 15 1 4 10 13 15 12 8 5 5 3 6 4 6 5 2 6 9 3 4 3 8 10 14 20 18 17 18 21 28 31 30 29 28 27 25
38 36 35 36 38 37 39 45 50 53 50 44 52 54 48 48 45 44 45 44 42 39 39 39 37 39 34 28 33 33 24 15 14 18 25 22 13 16 26 26 24 23 22 20 20 22 22 23 25 20 15 18 14 4 9 12 13 12 6 3 4 6 4 6 5 6 6 3 7 9 2 6 8 14 13 14 22 21 19 21 23 27 30 30 30 29 28 26
40 39 38 38 39 39 39 44 46 50 54 48 49 54 48 47 45 44 46 44 43 39 38 39 38 38 33 26 29 35 27 15 12 14 21 22 16 21 28 27 26 24 21 18 17 22 23 24 25 20 16 17 13 7 6 5 7 5 3 3 2 0 4 5 4 7 6 4 7 6 3 6 8 14 16 17 24 24 22 23 25 28 30 31 30 30 28 27
42 41 41 41 42 42 41 45 45 46 53 50 48 56 51 48 46 44 46 45 42 39 38 39 39 36 27 20 23 30 31 20 14 16 20 21 19 26 32 30 28 24 21 18 17 21 24 28 26 18 14 13 11 7 2 1 3 2 2 3 1 3 4 6 4 9 6 3 6 5 2 7 7 9 13 18 25 26 25 24 26 28 29 30 30 30 29 27
45 44 43 44 44 45 43 45 46 45 48 46 47 55 52 50 48 44 45 44 41 39 40 39 41 37 20 13 16 23 31 25 17 18 21 19 19 28 34 30 27 23 19 17 17 22 26 28 22 15 13 10 6 4 2 0 3 2 2 3 2 4 3 4 3 9 6 3 4 3 2 4 5 5 6 18 27 27 25 25 27 28 28 30 30 30 29 27
48 47 46 46 47 47 45 45 45 45 47 44 46 53 52 54 52 46 44 42 41 40 42 40 40 33 13 10 17 24 34 29 21 21 21 17 18 27 32 30 27 22 19 17 19 24 24 22 16 10 8 5 3 4 4 5 4 2 1 2 3 3 4 2 3 7 7 4 4 4 3 6 6 6 3 16 25 26 25 26 29 29 29 30 30 30 29 27
50 51 50 49 49 49 47 46 45 46 47 45 51 56 53 54 53 48 46 44 43 41 36 35 36 22 8 18 25 29 37 32 24 24 22 21 22 27 31 32 28 22 20 17 19 23 19 14 11 5 4 4 4 6 6 6 5 3 2 3 4 2 3 4 3 5 8 5 5 5 4 10 10 7 4 12 19 23 25 25 27 29 30 30 30 30 29 28
53 54 53 52 51 51 49 46 46 48 47 46 55 63 54 53 54 49 52 50 42 30 20 28 36 14 8 31 33 30 37 32 25 25 25 26 27 28 30 31 29 24 20 13 11 18 14 8 7 5 5 6 7 8 7 4 6 6 4 4 4 4 4 4 4 4 6 5 5 7 7 10 11 9 7 11 15 18 21 21 23 27 29 30 30 31 31 31
53 58 56 55 53 52 51 48 47 49 49 46 53 62 52 43 33 28 45 51 43 32 21 38 48 16 6 31 32 27 34 30 27 29 28 29 32 30 28 28 25 18 14 9 7 14 13 6 5 7 7 8 7 8 6 5 6 5 2 3 5 5 5 4 3 4 3 5 5 7 8 10 10 8 7 10 12 13 18 20 22 25 27 30 31 32 32 32
51 60 59 58 55 52 52 49 48 50 50 52 53 51 46 37 18 23 43 39 43 44 29 44 50 12 4 30 35 34 36 25 25 32 28 30 34 27 22 22 16 7 8 12 10 10 11 6 6 7 7 9 8 6 6 7 10 7 3 4 4 4 6 5 2 3 1 4 4 3 5 10 9 8 8 7 9 13 21 23 23 25 27 30 31 32 33 31
51 60 63 61 57 54 53 50 49 52 51 57 60 46 45 48 36 46 50 27 35 41 25 43 44 9 9 32 36 40 37 21 20 31 31 32 32 23 18 16 10 5 6 10 9 6 7 6 7 10 9 9 8 6 7 8 11 7 4 4 4 4 4 4 3 3 1 3 4 1 3 9 9 8 8 8 11 17 25 28 28 29 29 31 33 33 33 31
57 63 66 64 60 56 55 52 49 54 54 56 61 50 48 54 48 49 42 21 23 20 16 40 38 11 16 30 36 43 38 25 23 30 35 35 31 25 22 14 7 8 7 7 8 7 5 5 9 13 11 9 7 7 7 7 9 6 4 5 5 3 2 3 3 1 1 1 2 2 1 6 7 6 7 12 18 21 26 28 28 30 29 32 34 33 33 32
66 68 70 68 63 58 57 54 52 58 60 57 53 51 53 52 48 47 32 16 10 6 15 42 37 18 22 30 38 42 34 30 31 34 37 37 31 24 22 17 10 8 9 9 10 9 5 7 14 13 8 9 8 7 9 7 7 6 5 6 5 4 4 3 2 2 1 2 2 4 3 5 5 5 6 11 15 19 24 23 23 28 30 32 32 33 34 34
76 77 75 72 65 61 59 54 59 65 64 62 49 47 58 47 40 47 29 11 5 5 13 33 28 20 26 30 34 35 24 21 28 36 39 38 34 23 16 18 14 8 11 11 9 8 6 9 16 11 5 9 9 8 9 7 6 6 5 8 8 7 4 2 3 4 3 2 2 2 0 5 5 4 8 7 5 11 17 16 20 26 29 31 33 34 36 36
83 86 79 75 66 64 61 53 67 72 61 62 54 50 62 47 36 43 24 7 4 5 10 24 20 17 25 28 32 31 17 9 21 37 40 35 35 26 14 12 8 7 11 9 5 4 4 6 11 10 8 9 8 7 8 8 6 5 5 8 8 5 4 5 5 4 2 3 3 2 4 5 6 4 8 5 3 9 10 10 18 26 27 31 35 36 37 37
86 92 81 76 69 67 63 54 67 74 57 54 58 60 59 45 38 33 12 3 6 6 11 19 17 16 22 30 38 27 9 13 22 32 40 34 31 26 15 8 5 7 9 7 4 3 4 7 7 8 9 8 8 7 7 8 7 5 5 6 7 6 7 7 7 3 2 2 3 3 3 3 4 6 6 2 3 9 9 8 15 24 30 33 37 38 38 38
89 93 81 76 72 70 64 54 63 73 62 56 64 68 56 46 41 21 5 5 7 8 11 15 16 19 22 30 36 18 11 26 21 21 39 36 24 19 12 9 8 8 9 9 7 3 4 9 8 9 8 5 7 8 8 9 6 6 5 6 6 6 6 6 6 3 1 1 3 4 2 2 5 7 5 2 3 7 9 10 12 20 30 34 38 40 40 39
92 88 80 76 72 71 64 56 67 73 65 62 68 67 56 48 35 9 2 7 5 7 14 18 16 19 23 22 19 10 18 28 16 18 35 30 19 10 7 12 13 10 7 7 7 3 2 9 12 12 8 6 8 8 9 11 6 5 6 5 4 4 4 4 5 3 3 1 5 6 3 3 5 6 4 2 3 6 8 9 10 17 24 26 31 36 39 41
91 83 78 76 73 72 62 56 70 71 63 67 69 63 54 41 20 4 7 7 4 7 16 19 17 21 25 15 5 7 13 16 16 25 27 22 17 8 7 14 13 9 2 2 6 4 1 3 7 7 6 7 8 4 5 9 8 7 7 6 6 5 4 3 2 4 2 3 6 6 3 2 4 6 4 4 5 6 7 7 9 14 19 20 23 27 32 36
85 81 79 77 74 73 60 49 57 63 64 69 69 61 46 23 6 3 8 7 7 8 12 15 15 21 25 15 8 11 9 9 18 25 18 13 13 8 9 11 7 6 3 3 5 2 4 4 3 2 3 5 6 3 2 3 6 7 4 4 4 3 3 3 4 3 2 6 5 4 2 3 5 5 4 6 6 5 7 7 8 11 15 16 16 19 24 27
79 80 78 76 73 71 62 49 51 61 67 70 69 56 30 8 2 2 6 10 9 9 12 16 17 20 23 18 11 11 8 8 16 20 14 11 9 8 10 8 6 6 5 7 5 1 2 1 2 0 2 4 7 4 1 2 3 4 4 6 4 0 1 1 2 1 4 5 3 3 1 2 6 6 8 10 10 10 10 10 11 13 16 17 15 16 18 21
76 78 76 75 71 68 63 56 60 68 71 73 66 39 13 6 6 4 7 9 8 11 16 19 21 22 24 19 12 10 8 8 13 15 13 12 9 7 6 5 7 7 5 6 5 3 2 5 3 2 2 3 7 6 4 1 2 4 5 6 5 3 3 4 3 2 4 4 3 3 1 3 4 5 11 14 14 17 16 15 18 20 20 20 17 14 15 16
75 77 76 74 70 64 63 63 69 73 75 72 49 20 8 8 6 8 10 8 8 14 15 17 20 20 18 14 10 12 8 7 12 13 10 11 9 8 7 8 8 5 5 6 4 6 7 4 4 4 2 3 5 5 6 6 4 4 4 6 5 5 5 5 3 3 4 3 3 3 1 3 3 3 9 12 15 19 19 18 20 21 21 19 16 14 13 13
74 77 75 70 64 59 63 71 75 76 75 59 25 6 9 8 5 9 10 7 9 14 14 17 19 17 13 8 8 9 4 5 12 11 10 11 11 12 11 11 10 6 7 7 4 5 8 4 3 2 0 4 5 4 4 8 5 4 2 4 4 5 5 3 3 5 4 1 2 2 3 4 4 6 10 10 12 15 16 15 14 14 17 17 17 17 15 14
74 76 68 62 59 58 66 76 76 77 71 42 10 5 8 5 7 11 11 12 15 19 22 19 15 14 11 7 7 7 3 6 10 7 8 10 10 13 10 8 9 8 9 9 2 3 7 1 4 3 1 1 3 3 2 4 5 2 3 4 5 4 7 4 2 1 3 2 3 2 3 4 3 6 9 7 7 9 10 11 11 12 13 14 18 18 17 16
72 66 54 53 60 65 73 77 74 75 62 29 8 10 8 4 7 8 10 16 19 23 25 18 14 16 14 9 9 10 7 8 10 7 7 7 7 12 12 8 11 12 10 9 3 2 6 1 4 1 2 1 1 2 1 1 4 5 4 6 3 2 3 3 1 1 1 3 4 1 3 4 2 3 6 7 6 8 7 7 10 12 12 15 19 20 18 16
66 56 44 49 64 72 76 76 76 70 44 17 10 10 7 5 4 6 12 17 20 21 18 13 13 16 18 15 14 16 14 11 11 9 9 7 5 11 15 10 9 13 14 14 7 2 5 3 4 1 2 2 3 3 1 2 2 4 4 3 4 3 2 2 3 2 2 3 4 2 3 4 3 4 5 6 6 8 7 5 6 10 14 19 21 20 19 17
58 44 32 51 71 73 74 74 74 58 25 9 11 7 5 6 5 14 24 23 20 19 16 14 13 12 16 18 16 19 18 15 15 11 9 9 6 9 17 12 6 12 17 15 8 3 4 4 2 2 2 1 3 2 5 2 2 2 1 1 2 2 4 3 3 3 3 4 3 3 3 3 5 6 5 7 10 8 7 5 5 11 17 21 22 22 21 19
51 28 19 55 77 72 75 71 57 36 12 8 10 4 5 6 7 22 34 29 18 13 14 16 16 13 15 16 15 15 13 12 16 12 7 10 4 4 14 13 8 11 14 11 7 4 3 4 3 2 3 1 2 3 7 7 3 2 2 3 2 1 2 2 1 3 3 3 3 2 4 5 6 5 8 10 10 8 7 6 7 11 14 17 21 23 22 20
41 16 16 61 78 73 74 53 27 15 6 9 9 2 4 6 9 22 33 31 17 5 7 15 17 14 14 15 14 13 10 8 13 10 3 8 7 3 11 15 14 12 10 8 6 5 2 3 5 2 0 3 4 4 5 7 6 5 5 7 7 4 4 3 4 1 2 3 4 3 4 7 5 4 7 9 8 7 6 6 9 12 11 11 15 18 19 19
24 7 23 63 76 77 62 25 9 10 5 8 7 2 5 9 12 19 24 26 15 5 7 11 12 11 11 11 11 13 11 8 12 11 3 8 9 3 9 20 22 18 12 6 5 4 4 5 5 2 3 5 5 4 3 4 2 2 4 5 5 4 5 6 6 3 1 2 2 2 4 8 6 5 7 7 7 7 6 6 10 13 10 9 11 12 13 16
13 13 38 65 76 77 46 9 7 10 3 5 3 1 6 8 13 17 18 19 12 8 10 9 10 13 10 8 10 11 10 7 11 9 4 5 6 6 17 28 28 19 10 6 6 5 5 5 4 1 3 3 5 5 2 2 2 1 4 2 4 4 4 5 5 4 2 3 2 1 5 7 6 4 7 9 8 7 8 9 11 13 11 10 9 9 10 13
19 24 43 60 74 73 35 7 11 10 5 7 3 3 5 5 13 19 17 16 11 11 13 11 14 16 11 11 13 14 13 8 7 6 4 5 4 9 26 36 29 18 10 9 11 9 4 2 4 4 2 3 4 4 3 2 2 2 3 2 4 5 6 4 3 3 2 6 6 4 7 7 5 4 5 7 5 7 10 10 11 13 12 9 8 9 10 12
20 20 33 49 65 59 23 6 15 13 12 16 11 8 6 5 14 22 21 13 7 11 12 10 15 14 11 14 14 14 14 8 5 4 3 5 4 6 25 38 32 20 13 14 19 15 6 3 5 6 6 6 7 6 5 4 3 1 4 6 8 9 9 6 3 4 6 6 7 8 8 5 3 7 6 4 1 5 10 9 10 13 13 11 9 10 10 11
15 7 16 28 39 36 12 5 16 13 11 18 12 7 9 8 9 18 22 10 4 11 9 6 13 13 11 15 13 12 14 7 6 7 5 7 5 1 17 34 33 25 19 23 29 19 4 3 8 9 10 11 9 6 5 9 9 9 10 10 9 8 8 6 4 6 8 3 5 11 6 1 3 6 6 5 3 4 8 8 11 13 13 12 10 9 10 11
15 5 7 12 17 16 6 5 11 10 10 16 9 5 13 13 7 11 14 6 9 17 9 6 15 13 13 19 14 12 15 7 6 11 11 9 4 2 10 21 23 24 21 24 29 17 4 4 10 8 8 7 5 5 7 12 15 15 12 11 9 8 8 8 8 10 6 5 9 10 5 4 6 7 7 8 6 6 7 10 12 10 10 11 10 10 11 11
11 12 17 19 15 9 6 10 14 13 15 14 5 4 12 15 14 13 7 4 14 20 11 8 17 19 20 23 16 12 14 8 6 11 9 6 4 6 8 5 6 16 17 17 20 11 4 5 7 6 5 4 3 8 10 12 12 10 12 13 11 11 12 13 17 12 9 8 14 6 8 9 10 7 9 9 8 8 6 7 7 6 8 10 11 12 12 13
8 15 17 14 10 7 10 18 22 19 18 14 4 6 13 17 19 12 3 6 13 15 14 14 19 23 25 22 16 14 15 12 11 11 8 10 10 9 9 4 2 7 9 9 8 4 3 4 4 6 4 3 3 8 10 12 8 6 11 14 14 16 18 19 20 14 10 13 14 1 2 11 7 6 11 13 12 9 7 8 8 9 11 12 13 14 14 15
16 22 18 8 6 7 8 12 18 17 14 12 6 7 14 19 21 12 5 11 17 15 17 22 22 23 24 22 18 18 20 18 16 13 9 10 10 8 8 6 4 5 5 6 5 1 3 5 3 6 5 3 4 5 6 9 9 8 10 13 15 18 18 16 15 9 6 12 14 7 10 12 5 9 14 14 12 8 7 12 16 15 15 13 14 16 16 17
24 29 30 18 7 8 11 10 14 14 11 12 9 8 13 19 22 14 3 7 15 16 16 22 24 19 18 21 19 18 20 19 18 21 21 20 18 13 8 7 8 8 5 6 6 2 3 3 2 6 5 5 3 6 5 5 5 5 11 16 17 15 12 11 10 8 10 14 15 12 12 9 6 8 9 6 6 8 13 17 18 18 17 15 15 16 16 17
27 26 29 21 8 8 14 11 13 14 12 11 8 5 10 15 17 15 6 0 4 12 17 21 22 16 14 17 19 20 23 22 23 28 28 28 25 19 15 19 22 18 10 7 5 4 6 7 3 6 8 4 2 7 8 7 4 5 12 15 17 14 11 10 8 10 14 13 11 11 10 7 5 6 5 3 6 12 17 19 19 20 19 17 17 16 16 18
Wind_Direction
233 234 234 235 236 236 229 218 217 216 213 211 208 205 202 204 205 203 202 201 200 199 196 196 196 196 195 196 200 204 205 207 210 213 216 216 210 209 210 213 218 215 210 218 218 203 188 176 183 181 160 170 153 341 320 218 180 149 124 133 211 191 200 193 181 202 173 173 191 185 175 150 146 163 158 154 153 148 152 160 156 171 168 170 190 175 167 167
235 233 231 234 235 236 236 222 216 216 214 211 207 205 205 206 205 203 203 203 202 200 198 197 196 196 196 196 200 202 205 209 215 219 217 211 209 213 214 215 216 213 212 225 229 216 214 193 184 183 150 142 96 1 339 267 185 175 125 143 217 196 216 225 222 225 201 186 179 177 177 162 156 159 157 152 149 147 141 143 150 159 155 164 184 172 168 168
235 231 226 232 235 235 237 231 218 216 215 211 210 210 208 207 206 204 203 204 204 201 199 198 197 197 196 197 200 202 206 208 219 224 215 208 208 209 212 215 215 210 211 226 230 222 222 211 181 187 168 121 59 359 346 237 192 220 165 180 238 218 256 276 284 248 235 197 167 168 178 167 158 159 163 159 155 162 159 162 159 157 158 162 168 169 170 171
235 231 224 228 235 235 235 235 225 217 215 212 209 210 209 207 206 204 203 204 205 203 200 198 197 197 196 198 199 201 202 208 229 227 215 210 212 209 209 213 213 209 211 222 222 221 219 201 163 181 185 110 359 331 332 157 234 247 182 196 227 185 283 284 298 290 263 199 172 167 165 166 165 164 168 155 141 213 196 184 182 172 166 161 164 169 173 174
235 231 226 226 231 235 234 234 234 221 214 213 209 206 206 206 205 203 202 203 204 204 200 199 196 195 195 195 196 196 192 195 242 232 219 215 216 215 214 211 209 207 206 213 208 202 207 198 172 161 156 61 355 328 320 7 350 312 236 231 237 216 274 286 292 301 261 193 173 160 159 173 170 171 177 165 161 216 202 195 193 186 181 175 172 173 176 180
236 232 229 228 228 232 234 232 235 227 215 212 208 206 205 206 206 202 202 202 203 204 200 199 196 194 193 192 193 191 188 185 258 224 216 213 214 213 211 207 206 207 206 208 201 195 195 190 177 158 137 75 28 305 307 340 341 327 267 259 252 242 242 285 283 287 233 179 172 168 172 171 164 181 187 181 192 206 201 200 198 197 198 192 183 179 181 185
236 232 231 230 226 229 233 231 232 229 217 213 208 206 206 206 206 201 201 201 201 203 201 199 195 192 191 188 188 187 195 208 150 153 190 202 208 207 203 204 206 210 208 202 197 194 191 185 175 161 144 98 172 239 323 332 321 297 257 283 265 244 246 265 268 286 233 189 182 175 171 168 168 180 187 193 206 208 201 200 201 201 197 192 188 187 189 191
235 232 232 231 225 225 230 230 231 227 214 211 208 205 206 206 205 202 199 200 201 201 201 199 195 193 191 187 182 181 202 210 176 137 147 179 198 203 204 206 208 211 206 204 200 194 190 183 177 168 148 115 182 199 11 341 316 283 238 292 279 250 255 247 247 282 213 197 187 172 166 172 174 172 184 201 208 207 202 199 202 198 193 193 194 194 194 195
236 232 231 232 226 221 226 228 230 230 213 207 208 204 206 205 204 203 198 199 199 199 201 198 196 194 192 191 183 183 211 209 196 186 169 164 190 200 206 207 205 207 201 202 204 197 190 179 179 181 167 150 170 169 92 20 311 301 312 309 290 261 253 232 228 182 160 186 176 166 155 168 170 170 198 204 205 203 201 202 202 197 196 195 198 201 198 199
239 233 231 231 226 219 224 227 229 234 216 202 206 205 204 205 203 202 200 199 198 198 198 197 196 193 190 190 181 191 220 210 207 214 216 218 196 195 202 206 202 199 195 194 198 200 198 190 184 182 168 155 170 171 146 150 273 295 310 307 283 258 244 224 218 204 144 167 174 166 129 174 173 172 212 204 199 194 193 200 201 200 201 199 201 203 203 204
241 235 231 230 228 220 220 226 228 232 224 202 204 205 201 202 202 201 201 200 199 196 196 196 195 193 192 190 185 200 217 212 215 220 220 223 220 197 195 201 202 195 193 191 195 202 204 198 184 174 158 154 171 184 173 219 278 291 307 310 284 279 260 229 205 209 179 154 186 164 107 329 170 209 224 199 190 189 189 193 197 200 203 203 202 203 204 207
243 236 232 229 229 224 217 223 226 228 229 210 202 205 203 202 200 198 201 202 199 194 193 195 193 193 191 189 198 207 209 213 220 223 226 225 232 210 194 194 200 193 191 190 192 199 198 193 182 172 159 158 163 146 207 228 288 294 298 309 303 347 308 237 197 202 197 159 174 148 111 309 247 229 220 194 191 189 188 190 192 198 203 204 204 204 205 206
242 237 233 229 229 227 218 220 222 223 228 219 202 201 202 199 196 194 196 201 199 192 190 191 191 192 186 188 205 210 209 217 222 223 224 225 229 207 191 189 194 189 189 194 192 194 194 195 190 176 157 156 162 141 168 214 286 297 266 251 296 350 318 234 193 186 189 182 169 150 195 264 244 234 215 191 193 187 186 191 190 196 202 204 205 206 207 205
239 237 231 228 228 227 220 217 219 218 224 226 204 195 198 195 195 194 193 198 196 187 187 187 187 188 185 192 208 209 209 214 214 211 209 215 215 191 185 186 188 189 196 207 204 196 195 197 191 174 157 155 159 155 147 208 274 285 250 243 235 311 288 264 194 166 163 201 187 151 214 250 259 243 220 201 196 189 190 194 193 197 201 205 207 207 209 208
237 236 230 228 226 224 221 216 216 216 219 227 209 194 197 193 191 192 190 194 190 182 184 185 183 183 183 196 210 209 209 211 213 205 197 204 202 183 181 185 189 196 201 205 204 194 187 187 182 162 159 164 155 158 137 0 285 254 226 263 255 182 261 302 207 177 163 189 188 147 211 259 280 257 222 206 200 195 196 197 197 199 202 205 208 208 210 212
235 234 229 227 225 222 221 215 215 214 213 221 207 193 198 198 192 190 190 189 181 179 183 182 182 179 178 195 202 205 204 206 208 198 194 205 202 181 177 183 189 195 193 188 188 182 178 180 174 157 162 174 160 145 135 1 300 296 208 234 252 188 234 307 231 204 186 150 183 177 209 251 283 292 226 202 199 198 199 200 199 202 205 207 208 209 211 214
235 231 228 225 223 221 219 215 215 212 208 214 205 192 194 195 190 186 186 183 177 180 181 177 178 176 175 189 186 195 197 196 197 191 190 199 196 177 173 180 183 182 178 171 172 171 171 173 167 162 165 168 166 142 165 209 230 275 244 225 239 195 199 256 268 225 194 166 198 196 216 243 265 308 237 196 196 197 201 202 202 203 207 209 210 211 213 215
235 229 225 223 221 218 218 215 212 210 206 210 205 192 188 186 182 178 176 175 170 173 177 173 172 171 191 196 190 194 192 188 187 186 183 183 183 174 171 175 174 170 163 158 164 164 163 166 157 155 170 177 189 174 187 200 185 202 208 205 246 239 208 221 249 213 177 175 207 181 227 258 264 287 242 199 198 202 207 207 206 207 209 212 214 216 218 219
234 228 223 220 219 215 216 213 209 207 203 204 195 185 183 176 172 171 169 168 163 162 174 172 172 175 205 194 193 193 187 180 179 182 180 176 177 177 173 171 168 161 154 149 163 166 157 148 154 168 185 189 197 192 196 191 168 185 198 189 213 225 231 230 244 229 168 161 209 191 215 245 250 261 234 205 207 214 220 219 217 216 214 215 218 222 223 224
231 225 220 217 216 213 213 210 208 206 200 197 181 170 173 168 160 158 159 165 168 167 174 176 177 181 173 179 182 180 176 176 178 179 178 176 175 174 170 169 164 158 157 149 163 174 162 145 181 190 188 190 195 189 189 219 218 207 220 247 230 221 246 251 259 275 168 158 223 212 219 246 247 258 250 218 215 224 228 230 229 223 219 219 221 224 227 230
228 223 218 215 213 210 211 208 206 205 197 197 187 170 167 164 150 148 153 163 177 175 178 180 180 189 175 175 175 169 164 168 178 177 176 178 175 169 165 164 158 160 174 151 141 162 165 173 201 189 184 188 190 179 169 219 245 240 237 269 268 232 246 255 248 291 187 167 255 244 228 258 256 258 266 222 206 226 228 227 230 226 222 222 223 226 229 233
226 221 215 213 210 207 210 205 203 203 194 192 192 183 169 165 164 161 157 159 176 176 180 180 181 197 180 176 175 169 159 152 171 175 175 176 176 170 162 162 158 164 171 148 134 145 176 204 200 185 181 173 178 179 172 215 243 241 226 242 264 245 251 267 252 294 5 176 258 288 210 255 262 257 256 218 209 231 233 230 230 227 223 224 226 228 230 233
223 219 213 211 208 206 207 204 202 200 195 188 184 181 170 166 171 167 154 138 158 167 165 173 181 182 158 165 170 169 162 159 169 176 176 173 175 170 159 159 161 157 163 166 159 159 187 218 194 186 180 165 173 185 182 219 242 235 204 210 253 256 220 250 241 241 47 123 188 122 214 270 275 280 269 235 227 238 244 240 238 234 231 232 232 232 232 234
219 215 211 208 206 205 204 202 201 197 195 190 180 176 171 167 173 169 145 109 128 124 152 171 179 178 162 162 169 171 167 169 172 174 176 173 170 166 161 163 157 158 179 180 167 166 192 199 183 179 179 177 182 192 192 209 237 239 206 199 238 249 228 236 207 142 47 6 109 99 10 305 270 268 269 246 232 240 248 246 245 241 239 240 239 237 236 237
214 210 208 205 203 203 202 201 199 194 191 191 186 176 172 172 174 166 144 86 113 113 152 174 181 182 171 165 171 172 162 167 174 172 174 174 169 160 160 169 165 174 182 168 154 171 208 193 172 164 175 187 187 202 199 192 221 249 223 202 217 229 227 198 136 98 66 306 267 129 343 293 293 263 252 257 251 249 250 246 246 246 243 242 240 239 240 240
207 204 203 201 201 199 200 201 195 190 185 187 189 178 174 176 169 161 146 71 145 142 152 175 184 181 173 168 169 165 153 167 179 172 171 175 173 162 153 169 174 176 170 155 144 183 208 175 163 167 176 184 195 215 205 182 196 248 240 205 203 196 149 148 159 121 129 227 276 105 172 253 313 288 251 264 278 261 258 250 249 249 246 243 241 241 240 239
200 198 198 197 199 195 196 199 189 183 179 180 181 177 176 174 164 158 139 81 176 148 144 168 178 176 174 171 167 163 160 165 167 172 173 174 176 170 164 170 164 165 159 141 168 212 162 152 168 176 172 180 197 214 207 172 176 236 243 182 165 160 161 173 171 158 188 212 338 26 137 212 285 266 262 293 268 274 276 261 255 249 245 243 241 241 240 239
192 194 195 194 197 194 194 193 178 174 178 174 172 175 175 168 167 167 139 158 163 132 141 161 167 170 173 172 170 163 148 154 155 178 177 173 176 175 173 177 158 158 166 159 182 226 141 167 186 172 170 191 195 212 197 164 182 238 213 158 155 163 168 166 153 148 23 82 291 300 144 181 267 272 294 331 253 279 277 258 251 246 245 244 243 242 242 241
187 191 192 191 194 193 193 189 173 173 178 171 169 175 171 164 167 172 193 172 137 130 151 156 163 165 160 166 177 161 144 153 157 173 176 176 178 170 166 176 155 145 173 172 175 208 174 188 188 169 177 197 194 214 189 167 198 214 150 112 83 81 86 105 128 119 55 68 237 241 190 198 267 278 294 305 252 257 262 260 256 253 253 250 247 245 244 244
184 188 188 188 190 188 189 183 173 177 176 167 169 170 163 162 164 166 199 175 112 151 153 152 162 158 149 149 204 195 156 152 146 154 170 179 174 159 149 165 152 134 138 93 157 204 335 172 181 170 186 191 181 189 173 178 179 136 112 87 61 45 44 50 70 93 91 264 249 237 215 200 264 275 246 227 228 217 230 262 273 270 270 264 256 253 249 248
183 185 185 185 186 185 183 172 171 177 170 164 166 161 154 158 167 174 182 144 119 156 150 148 157 153 153 154 182 192 166 133 144 151 164 176 171 161 150 160 150 120 113 125 170 283 26 100 173 181 179 156 135 106 79 182 158 121 107 112 96 12 17 23 0 48 192 249 269 261 224 176 231 261 243 238 253 228 214 239 263 274 282 284 279 271 262 256
180 182 182 183 184 185 181 170 168 168 163 161 161 154 147 151 210 196 162 146 148 166 156 155 159 157 161 164 169 179 157 139 158 158 159 167 176 181 172 177 167 146 174 180 171 22 69 190 287 140 197 152 136 137 51 41 115 122 120 129 134 22 38 233 269 271 226 244 281 276 234 209 235 251 257 261 266 253 232 231 250 267 283 296 302 291 276 264
178 179 179 181 183 184 184 175 166 161 158 159 156 149 144 169 178 161 155 167 170 167 161 158 163 163 162 163 164 165 149 152 165 160 158 161 168 193 208 208 169 150 172 168 138 131 188 299 304 140 241 201 161 164 174 155 143 146 145 151 156 136 153 216 237 273 256 255 270 262 257 265 268 261 248 247 252 256 257 259 266 271 280 290 294 290 284 271
177 177 177 180 181 183 183 174 164 159 156 154 150 144 163 171 162 153 167 184 159 156 158 152 156 160 160 159 160 160 148 155 165 155 152 159 166 191 211 212 188 135 114 144 154 169 178 243 232 180 182 181 173 179 169 148 151 184 169 147 157 159 167 202 210 210 232 261 276 270 234 201 204 250 245 247 263 269 271 274 275 272 270 273 273 269 271 271
175 175 175 177 178 179 176 167 162 161 155 149 143 149 170 160 149 161 171 171 146 144 143 142 147 153 158 155 161 170 147 153 166 156 160 172 177 186 190 197 193 149 135 163 182 174 171 204 266 280 210 152 165 195 148 126 155 217 155 130 187 187 148 148 188 179 177 231 265 234 232 210 208 274 275 266 271 275 275 277 278 270 261 253 249 248 249 251
169 170 172 173 174 173 168 162 162 162 155 146 137 173 174 179 171 171 170 164 159 149 139 142 151 155 160 155 164 182 152 150 165 160 174 181 184 190 189 189 187 172 161 159 143 160 161 193 322 339 357 106 146 178 157 151 179 180 136 188 221 171 121 124 200 136 117 209 246 205 250 291 313 296 295 297 288 287 282 271 260 256 253 243 239 240 239 240
164 165 165 168 171 168 162 160 161 160 153 145 161 173 177 212 179 168 165 158 155 149 143 148 163 164 162 159 168 177 157 146 161 166 174 180 194 194 192 193 183 181 175 150 136 201 149 131 321 42 144 296 55 120 21 48 138 129 174 210 198 128 102 110 164 350 64 233 268 230 221 278 314 274 309 332 308 283 278 272 262 253 242 234 236 239 239 240
162 161 157 161 166 163 159 159 159 155 149 149 172 168 172 200 173 144 153 152 147 148 149 153 166 168 166 166 169 172 166 161 171 175 171 180 219 196 186 193 183 179 175 152 146 205 137 128 308 342 180 273 11 97 146 0 86 142 185 189 135 161 207 141 164 198 200 231 272 292 246 243 205 220 293 310 274 263 275 302 291 258 242 235 236 240 239 237
159 157 155 159 162 160 158 156 154 150 147 167 174 168 171 180 170 156 158 155 150 154 158 159 165 171 172 169 165 170 173 171 171 174 175 185 225 201 181 181 176 179 177 159 151 186 134 126 251 282 262 289 24 110 180 205 4 56 70 83 106 148 178 178 169 167 184 214 239 282 285 249 220 211 217 242 252 257 270 290 276 253 248 240 239 243 240 234
157 154 158 160 160 161 159 154 150 148 153 179 173 175 172 164 159 161 162 160 155 160 165 163 164 166 169 166 160 168 175 171 172 177 182 178 186 213 188 177 159 170 170 150 138 160 126 110 174 267 325 157 178 210 184 175 170 143 153 188 197 137 129 167 187 140 147 182 192 232 264 259 247 207 190 215 239 244 247 261 267 270 268 251 244 248 244 235
157 152 161 161 159 159 157 151 147 155 168 173 171 181 165 148 147 160 164 163 157 142 149 159 165 164 163 161 159 168 167 160 174 179 178 174 168 208 197 173 150 152 155 135 140 165 138 108 145 163 306 190 227 254 186 177 182 172 182 194 188 167 129 165 226 216 112 174 178 182 250 262 252 204 198 214 225 231 232 236 263 282 287 264 251 253 251 239
153 146 160 161 159 157 154 146 153 168 170 172 173 178 151 147 152 159 163 163 156 103 120 151 160 154 158 161 157 165 162 156 179 182 173 181 177 171 175 160 150 153 153 136 150 158 112 100 117 147 205 209 251 283 164 167 170 156 207 203 170 159 139 156 209 229 194 217 150 137 252 267 253 207 203 219 222 230 240 241 264 284 289 271 262 260 253 238
137 131 155 161 159 156 151 138 165 166 184 170 165 197 161 153 159 158 160 164 154 123 136 154 158 156 162 159 148 161 165 159 178 177 135 162 179 163 159 155 150 152 149 138 160 157 115 96 101 76 303 297 309 332 42 103 90 202 241 183 139 177 152 145 183 181 177 216 149 141 263 266 270 239 220 236 248 254 261 257 265 279 281 273 269 262 250 235
134 132 151 160 160 157 154 158 168 163 167 159 162 212 173 156 165 162 163 170 162 147 153 163 166 165 164 159 158 168 170 163 177 176 131 145 177 166 160 158 158 162 169 173 174 169 155 119 114 108 45 354 334 330 311 238 172 204 231 178 161 162 122 118 155 124 201 220 172 178 247 250 273 302 254 251 277 280 267 256 257 270 276 274 268 261 253 239
140 136 150 161 163 160 154 165 170 164 163 166 178 191 162 155 179 173 164 163 156 151 152 159 162 156 149 154 157 167 172 164 161 165 124 132 147 166 165 165 167 173 176 168 161 156 153 152 146 140 155 187 202 212 216 189 152 214 213 191 193 177 160 165 138 148 224 218 164 196 238 245 302 337 312 269 281 282 269 250 241 255 266 268 262 253 251 246
145 142 149 159 165 162 140 128 162 160 161 165 173 185 159 155 185 175 162 153 131 141 131 129 145 137 143 154 150 165 176 162 141 154 147 147 149 223 176 172 174 177 172 160 156 150 117 167 183 183 188 194 194 196 161 128 150 206 203 186 194 192 178 151 117 189 207 152 188 226 227 177 286 311 302 265 237 260 271 258 242 244 252 255 252 245 244 245
147 156 152 146 158 162 113 99 156 160 166 167 167 183 167 158 165 171 170 170 147 142 120 118 149 148 159 160 154 169 172 149 135 156 156 157 145 83 169 176 179 176 166 158 158 149 87 186 192 187 197 200 169 166 155 148 177 200 190 182 191 183 170 165 197 212 156 124 237 230 143 153 237 251 253 250 244 242 256 266 265 261 256 251 248 244 240 237
148 154 163 154 151 166 159 159 168 165 170 173 161 157 164 161 165 172 183 174 151 147 134 145 166 167 167 164 158 162 164 148 150 161 154 152 134 119 144 167 180 169 160 158 164 154 110 181 184 154 188 235 152 155 165 170 187 189 177 186 188 177 179 194 216 213 147 190 239 195 139 211 227 225 236 235 230 233 254 286 293 283 263 251 245 242 239 236
136 144 158 152 142 157 159 163 167 164 170 175 158 159 168 169 173 174 156 145 158 161 155 162 175 171 167 166 157 156 168 167 166 171 162 155 151 143 145 140 148 165 155 152 170 166 125 169 170 133 160 256 199 176 174 167 169 175 186 194 187 187 196 203 216 214 181 226 251 210 218 250 223 202 239 246 249 261 290 297 284 272 264 252 238 237 238 238
149 152 156 136 105 120 118 143 159 161 169 176 178 181 176 175 176 172 160 162 166 172 167 166 173 171 166 166 162 169 179 172 164 167 154 145 153 155 157 162 155 152 144 146 170 212 143 176 169 119 132 251 215 183 181 168 165 177 200 208 201 199 206 211 221 215 195 247 262 264 271 271 226 204 234 251 267 279 269 259 259 262 263 252 236 234 235 237
157 160 159 149 124 134 134 142 158 163 175 184 188 188 183 184 178 164 158 183 170 172 173 164 161 160 163 168 170 176 175 165 158 162 159 158 165 169 168 163 149 139 138 156 164 127 108 148 127 119 159 236 203 149 161 152 144 198 222 217 205 200 206 213 216 198 197 229 244 248 257 257 223 211 221 243 265 250 244 248 253 259 260 256 248 242 240 240
156 157 154 144 111 135 148 148 160 172 185 183 179 181 181 185 179 159 143 248 161 154 152 149 148 150 162 176 178 175 170 163 160 162 162 162 163 161 154 156 157 155 157 160 155 141 141 147 154 157 175 231 200 145 141 109 94 257 239 207 194 196 200 206 221 218 212 216 222 234 239 220 192 190 180 183 222 233 242 244 246 255 258 258 257 251 249 250